374P/Larson (2019)

Japanese version
Home page
Updated on October 24, 2018

---------------------------------------------------------------------

* Profile

Designation 374P/2018 S1
Recovery Date September 17, 2018
Magnitude 19.4 mag
Recoverer K. Sarneczky and R. Szakats (Konkoly Observatory)

* Pictures

* Orbital Elements

Epoch 2018 Dec. 28.0 TT = JDT 2458480.5
T 2019 Jan. 10.86506 TT                                 MPCW
q   2.6766256            (2000.0)            P               Q
n   0.08874584     Peri.   51.59142     +0.50904036     -0.86035684
a   4.9777992      Node     7.93513     +0.72004891     +0.40924080
e   0.4622873      Incl.   10.75790     +0.47160097     +0.30382245
P  11.11
From 178 observations 2007 Sept. 10-2018 Sept. 18, mean residual 0".6.

* Magnitudes Graph

        m1 = 10.3 + 5 log d + 15.0 log r

---------------------------------------------------------------------

The orbital elements are published on M.P.E.C. 2018-S50.
The magnitudes graphs are made with Comet for Windows.

---------------------------------------------------------------------

Copyright(C) Seiichi Yoshida (comet@aerith.net). All rights reserved.